Regional Weather Roundup
Issued by NWS

Home | Current Version | Previous Version | Text Only | Print | Product List | Glossary Off
Versions: 1 2 3 4 5 6 7 8 9 10 11 12 13 14 15 16 17 18 19 20 21 22 23 24 25 26 27 28 29 30 31 32 33 34 35 36 37 38 39 40 41 42 43 44 45 46 47 48 49 50

000
ASUS43 KBIS 240059
RWRND

NORTH DAKOTA REGIONAL WEATHER ROUNDUP
NATIONAL WEATHER SERVICE BISMARCK ND
700 PM CST SUN NOV 23 2014

NOTE: "FAIR" INDICATES FEW OR NO CLOUDS BELOW 12,000 FEET WITH NO
SIGNIFICANT WEATHER AND/OR OBSTRUCTIONS TO VISIBILITY.


NDZ001>003-009>011-017-240200-
NORTHWEST NORTH DAKOTA

CITY           SKY/WX    TMP DP  RH WIND       PRES   REMARKS
WILLISTON      PTCLDY    18  11  74 NW9       29.80S WCI   7
MINOT          FLURRIES  17  10  74 NW24G33   29.70R WCI  -1
$$

NDZ018>021-031>035-040>046-240200-
SOUTHWEST NORTH DAKOTA

CITY           SKY/WX    TMP DP  RH WIND       PRES   REMARKS
BISMARCK       CLOUDY    22  13  68 NW24G33   29.68S WCI   5
GARRISON         N/A     19  12  74 NW25G37   29.69S WCI   1
HETTINGER ARPT CLOUDY    23  16  74 NW23G36   29.72S WCI   7
$$

NDZ004>008-012>016-024-026-027-054-240200-
NORTHEAST NORTH DAKOTA

CITY           SKY/WX    TMP DP  RH WIND       PRES   REMARKS
GRAND FORKS    LGT SNOW  20  17  88 NW21G28   29.57R FOG     WCI   4
DEVILS LAKE    CLOUDY    16   3  57 NW20G28   29.60R WCI  -1
$$

NDZ022-023-025-028>030-036>039-047>053-240200-
SOUTHEAST NORTH DAKOTA

CITY           SKY/WX    TMP DP  RH WIND       PRES   REMARKS
FARGO          CLOUDY    28  23  81 N20       29.54R WCI  15
$$



USA.gov is the U.S. government's official web portal to all federal, state and local government web resources and services.